Location: Ecklingerode
(51.5036°N, 10.3122°E)
Time: 00:41:47
(UTC+00:00)

CZ-4 R/B - Pass Details

Date: 29 October 2020
Orbit: 531 x 599 km, 97.7° (Epoch: 23 November)

Event Time Altitude Azimuth Distance (km) Brightness Sun altitude
Rises 19:00:52 0° 211° (SSW) 2,692 5.0 -29.0°
Reaches altitude 10° 19:03:49 10° 236° (WSW) 1,797 4.4 -29.5°
Maximum altitude 19:05:59 14° 271° (W) 1,532 4.3 -29.8°
Drops below altitude 10° 19:08:10 10° 305° (NW) 1,796 4.8 -30.1°
Sets 19:11:08 0° 330° (NNW) 2,690 5.5 -30.6°
